Regional Weather Roundup
Issued by NWS

Home | Current Version | Previous Version | Graphics & Text | Print | Product List | Glossary On
Versions: 1 2 3 4 5 6 7 8 9 10 11 12 13 14 15 16 17 18 19 20 21 22 23 24 25 26 27 28 29 30 31 32 33 34 35 36 37 38 39 40 41 42 43 44 45 46 47 48 49 50
000
ASUS45 KSLC 052110
RWRUT

UTAH REGIONAL WEATHER ROUNDUP
NATIONAL WEATHER SERVICE SALT LAKE CITY UT
200 PM MST THU MAR 05 2015

UTZ001>011-023>025-052200-

NORTHERN UTAH

CITY           SKY/WX    TMP DP  RH WIND       PRES   REMARKS
BRIGHAM CITY     N/A     42  21  43 CALM      30.43F
HILL AFB         N/A     42  15  33 CALM      30.41F
LOGAN          SUNNY     43  17  35 SE5       30.40F
OGDEN            N/A     44  19  36 SW7       30.41F
PROVO AIRPORT  PTSUNNY   43  25  49 VRB5      30.42F
SALT LAKE CITY   N/A     47  20  34 SW6       30.41F
VERNAL         MOSUNNY   36  17  46 VRB3      30.37F
WENDOVER         N/A     45  19  36 SE8       30.41F
HEBER CITY       N/A     37  19  48 W5        30.39F WCI  34
WEST JORDAN    SUNNY     45  19  36 NE3       30.41F

$$

UTZ012>022-026-027-052200-

SOUTHERN/CENTRAL UTAH

CITY           SKY/WX    TMP DP  RH WIND       PRES   REMARKS
BLANDING         N/A     40  23  50 S5        30.44S
BRYCE CANYON     N/A     34  11  38 N8        30.37F WCI  27
CEDAR CITY       N/A     39   8  27 NE5       30.37F
DELTA            N/A     44  19  37 CALM      30.41F
HANKSVILLE       N/A     46  19  34 W5        30.40F
MILFORD          N/A     45  21  38 N7        30.39F
MOAB/CYNLANDS  SUNNY     46  17  31 N6        30.36F
PRICE            N/A     39  16  39 SE6       30.36F WCI  35
ST GEORGE        N/A     52  25  35 CALM      30.39F
KANAB            N/A     48  19  32 SE3       30.39F

$$

REGIONAL REPORTS     COLORADO/ARIZONA

CITY           SKY/WX    TMP DP  RH WIND       PRES   REMARKS
CRAIG, CO      NOT AVBL
GRAND JUNCTION SUNNY     43  13  29 MISG      30.37F
RIFLE          SUNNY     40  12  32 NW6       30.36F
MONTROSE       SUNNY     40  15  36 CALM      30.38F
CORTEZ         SUNNY     45  19  35 W9        30.35F
PAGE, AZ         N/A     48  21  34 VRB5      30.37F
GRAND CANYON     N/A     47  15  27 VRB5      30.36F
KINGMAN          N/A     61  25  25 N12       30.30F
FLAGSTAFF        N/A     44  12  27 NE9       30.35F

$$

REGIONAL REPORTS    NEVADA/IDAHO/WYOMING

CITY           SKY/WX    TMP DP  RH WIND       PRES   REMARKS
LAS VEGAS, NV    N/A     60  19  20 SW5       30.30F
ELY              N/A     48  14  25 N8        30.37F
ELKO             N/A     50  15  24 SW12      30.37F
POCATELLO, ID  SUNNY     48  15  26 W16       30.37F
BURLEY           N/A     50  14  23 W6        30.35F
EVANSTON, WY   MOSUNNY   34  16  47 W16       30.35F WCI  24
ROCK SPRINGS   SUNNY     33  19  56 W26       30.27F WCI  20
KEMMERER       SUNNY     36  16  44 W18G26    30.31F WCI  25

$$


USA.gov is the U.S. government's official web portal to all federal, state and local government web resources and services.